Time,TemperatureF,DewpointF,PressureIn,WindDirection,WindDirectionDegrees,WindSpeedMPH,WindSpeedGustMPH,Humidity,HourlyPrecipIn,Conditions,Clouds,dailyrainin,SolarRadiationWatts/m^2,SoftwareType,DateUTC
2013-03-17 00:04:00,57.3,45.6,29.95,SW,219,1.0,1.0,65,0.00,,,0.00,0,Wunderground v.1.15,2013-03-17 05:04:00,
2013-03-17 00:13:00,56.8,46.0,29.95,SW,223,1.0,1.0,67,0.00,,,0.00,0,Wunderground v.1.15,2013-03-17 05:13:00,
2013-03-17 00:24:00,56.5,45.7,29.95,SW,220,1.0,4.0,67,0.00,,,0.00,0,Wunderground v.1.15,2013-03-17 05:24:00,
2013-03-17 00:33:00,56.4,46.0,29.95,SW,223,1.0,1.0,68,0.00,,,0.00,0,Wunderground v.1.15,2013-03-17 05:33:00,
2013-03-17 00:43:00,56.1,45.7,29.95,SW,219,1.0,1.0,68,0.00,,,0.00,0,Wunderground v.1.15,2013-03-17 05:43:00,
2013-03-17 00:49:00,56.4,46.0,29.95,SW,232,1.0,1.0,68,0.00,,,0.00,0,Wunderground v.1.15,2013-03-17 05:49:00,
2013-03-17 01:03:00,55.6,45.6,29.95,SSW,213,1.0,1.0,69,0.00,,,0.00,0,Wunderground v.1.15,2013-03-17 06:03:00,
2013-03-17 01:14:00,55.4,45.8,29.95,SSW,209,1.0,1.0,70,0.00,,,0.00,0,Wunderground v.1.15,2013-03-17 06:14:00,
2013-03-17 01:24:00,55.2,45.6,29.95,SW,226,1.0,1.0,70,0.00,,,0.00,0,Wunderground v.1.15,2013-03-17 06:24:00,
2013-03-17 01:34:00,55.6,46.0,29.95,SSW,203,2.0,2.0,70,0.00,,,0.00,0,Wunderground v.1.15,2013-03-17 06:34:00,
2013-03-17 01:43:00,56.3,46.3,29.95,SSW,209,3.0,3.0,69,0.00,,,0.00,0,Wunderground v.1.15,2013-03-17 06:43:00,
2013-03-17 01:53:00,57.5,46.6,29.95,SSW,209,4.0,5.0,67,0.00,,,0.00,0,Wunderground v.1.15,2013-03-17 06:53:00,
2013-03-17 02:03:00,57.7,46.8,29.95,WSW,244,4.0,4.0,67,0.00,,,0.00,0,Wunderground v.1.15,2013-03-17 07:03:00,
2013-03-17 02:13:00,57.4,46.9,29.95,SW,225,4.0,4.0,68,0.00,,,0.00,0,Wunderground v.1.15,2013-03-17 07:13:00,
2013-03-17 02:24:00,57.6,47.1,29.95,West,269,4.0,4.0,68,0.00,,,0.00,0,Wunderground v.1.15,2013-03-17 07:24:00,
2013-03-17 02:33:00,57.1,47.0,29.95,SSW,201,4.0,7.0,69,0.00,,,0.00,0,Wunderground v.1.15,2013-03-17 07:33:00,
2013-03-17 02:39:00,56.7,47.0,29.95,SSW,211,4.0,7.0,70,0.00,,,0.00,0,Wunderground v.1.15,2013-03-17 07:39:00,
2013-03-17 02:49:00,56.1,47.2,29.95,SSW,213,4.0,4.0,72,0.00,,,0.00,0,Wunderground v.1.15,2013-03-17 07:49:00,
2013-03-17 02:58:00,55.8,47.3,29.94,South,182,3.0,3.0,73,0.00,,,0.00,0,Wunderground v.1.15,2013-03-17 07:58:00,
2013-03-17 03:03:00,55.6,47.1,29.94,South,169,4.0,7.0,73,0.00,,,0.00,0,Wunderground v.1.15,2013-03-17 08:03:00,
2013-03-17 03:14:00,55.8,47.6,29.95,South,171,4.0,6.0,74,0.00,,,0.00,0,Wunderground v.1.15,2013-03-17 08:14:00,
2013-03-17 03:24:00,55.5,47.7,29.95,SSW,209,4.0,4.0,75,0.00,,,0.00,0,Wunderground v.1.15,2013-03-17 08:24:00,
2013-03-17 03:33:00,55.2,47.8,29.95,SSW,197,3.0,3.0,76,0.00,,,0.00,0,Wunderground v.1.15,2013-03-17 08:33:00,
2013-03-17 03:39:00,55.2,47.8,29.95,SW,216,3.0,4.0,76,0.00,,,0.00,0,Wunderground v.1.15,2013-03-17 08:39:00,
2013-03-17 03:48:00,55.0,48.3,29.94,South,189,3.0,3.0,78,0.00,,,0.00,0,Wunderground v.1.15,2013-03-17 08:48:00,
2013-03-17 03:54:00,54.9,48.2,29.94,West,264,3.0,3.0,78,0.00,,,0.00,0,Wunderground v.1.15,2013-03-17 08:54:00,
2013-03-17 04:03:00,54.5,48.1,29.94,SW,225,3.0,3.0,79,0.00,,,0.00,0,Wunderground v.1.15,2013-03-17 09:03:00,
2013-03-17 04:08:00,54.4,48.4,29.95,SSW,211,4.0,4.0,80,0.00,,,0.00,0,Wunderground v.1.15,2013-03-17 09:08:00,
2013-03-17 04:18:00,54.6,48.6,29.94,SW,215,3.0,5.0,80,0.00,,,0.00,0,Wunderground v.1.15,2013-03-17 09:18:00,
2013-03-17 04:23:00,54.5,48.8,29.95,SSW,211,3.0,5.0,81,0.00,,,0.00,0,Wunderground v.1.15,2013-03-17 09:23:00,
2013-03-17 04:38:00,54.5,48.8,29.94,SW,236,3.0,3.0,81,0.00,,,0.00,0,Wunderground v.1.15,2013-03-17 09:38:00,
2013-03-17 04:49:00,54.4,49.0,29.94,WSW,243,3.0,3.0,82,0.00,,,0.00,0,Wunderground v.1.15,2013-03-17 09:49:00,
2013-03-17 04:58:00,54.1,49.1,29.94,SW,217,2.0,3.0,83,0.00,,,0.00,0,Wunderground v.1.15,2013-03-17 09:58:00,
2013-03-17 05:04:00,53.9,48.9,29.94,SW,218,1.0,1.0,83,0.00,,,0.00,0,Wunderground v.1.15,2013-03-17 10:04:00,
2013-03-17 05:13:00,53.5,48.8,29.95,SSW,213,1.0,1.0,84,0.00,,,0.00,0,Wunderground v.1.15,2013-03-17 10:13:00,
2013-03-17 05:24:00,53.3,48.9,29.95,SW,229,2.0,2.0,85,0.00,,,0.00,0,Wunderground v.1.15,2013-03-17 10:24:00,
2013-03-17 05:33:00,52.8,48.7,29.95,SW,225,2.0,2.0,86,0.00,,,0.00,0,Wunderground v.1.15,2013-03-17 10:33:00,
2013-03-17 05:43:00,52.3,48.5,29.96,SW,215,1.0,2.0,87,0.00,,,0.00,0,Wunderground v.1.15,2013-03-17 10:43:00,
2013-03-17 05:54:00,52.1,48.7,29.97,SW,234,2.0,2.0,88,0.00,,,0.00,0,Wunderground v.1.15,2013-03-17 10:54:00,
2013-03-17 06:03:00,52.0,48.9,29.96,SW,234,1.0,1.0,89,0.00,,,0.00,0,Wunderground v.1.15,2013-03-17 11:03:00,
2013-03-17 06:09:00,51.7,48.6,29.97,WSW,242,1.0,1.0,89,0.00,,,0.00,0,Wunderground v.1.15,2013-03-17 11:09:00,
2013-03-17 06:18:00,51.0,47.9,29.97,SW,219,1.0,2.0,89,0.00,,,0.00,0,Wunderground v.1.15,2013-03-17 11:18:00,
2013-03-17 06:24:00,51.0,48.2,29.97,SW,232,1.0,2.0,90,0.00,,,0.00,0,Wunderground v.1.15,2013-03-17 11:24:00,
2013-03-17 06:34:00,50.3,47.8,29.98,SW,224,2.0,2.0,91,0.00,,,0.00,0,Wunderground v.1.15,2013-03-17 11:34:00,
2013-03-17 06:43:00,50.3,48.1,29.98,SW,219,1.0,1.0,92,0.00,,,0.00,0,Wunderground v.1.15,2013-03-17 11:43:00,
2013-03-17 06:48:00,50.6,48.4,29.98,SW,227,1.0,2.0,92,0.00,,,0.00,0,Wunderground v.1.15,2013-03-17 11:48:00,
2013-03-17 06:59:00,50.6,48.1,29.98,SW,218,1.0,2.0,91,0.00,,,0.00,11,Wunderground v.1.15,2013-03-17 11:59:00,
2013-03-17 07:08:00,50.7,48.7,29.98,SW,223,2.0,3.0,93,0.00,,,0.00,19,Wunderground v.1.15,2013-03-17 12:08:00,
2013-03-17 07:13:00,50.6,48.4,29.98,South,184,2.0,2.0,92,0.00,,,0.00,25,Wunderground v.1.15,2013-03-17 12:13:00,
2013-03-17 07:23:00,51.2,49.2,29.98,SW,219,2.0,2.0,93,0.00,,,0.00,53,Wunderground v.1.15,2013-03-17 12:23:00,
2013-03-17 07:34:00,52.5,50.2,29.98,South,179,2.0,2.0,92,0.00,,,0.00,84,Wunderground v.1.15,2013-03-17 12:34:00,
2013-03-17 07:43:00,53.5,50.9,29.98,SSW,205,2.0,5.0,91,0.00,,,0.00,77,Wunderground v.1.15,2013-03-17 12:43:00,
2013-03-17 07:53:00,54.2,51.3,29.98,SSW,210,2.0,2.0,90,0.00,,,0.00,111,Wunderground v.1.15,2013-03-17 12:53:00,
2013-03-17 07:58:00,54.5,51.3,29.98,WSW,245,3.0,4.0,89,0.00,,,0.00,151,Wunderground v.1.15,2013-03-17 12:58:00,
2013-03-17 08:08:00,55.2,52.0,29.99,SW,233,3.0,3.0,89,0.00,,,0.00,225,Wunderground v.1.15,2013-03-17 13:08:00,
2013-03-17 08:13:00,55.6,52.1,29.99,SW,230,3.0,6.0,88,0.00,,,0.00,244,Wunderground v.1.15,2013-03-17 13:13:00,
2013-03-17 08:23:00,56.3,52.5,29.99,SSW,207,4.0,5.0,87,0.00,,,0.00,278,Wunderground v.1.15,2013-03-17 13:23:00,
2013-03-17 08:29:00,56.6,53.1,30.00,WSW,246,4.0,5.0,88,0.00,,,0.00,306,Wunderground v.1.15,2013-03-17 13:29:00,
2013-03-17 08:38:00,57.2,53.4,30.00,WSW,245,5.0,5.0,87,0.00,,,0.00,311,Wunderground v.1.15,2013-03-17 13:38:00,
2013-03-17 08:43:00,57.7,53.5,30.00,WSW,246,4.0,7.0,86,0.00,,,0.00,341,Wunderground v.1.15,2013-03-17 13:43:00,
2013-03-17 08:54:00,58.1,53.6,30.00,SW,221,4.0,4.0,85,0.00,,,0.00,425,Wunderground v.1.15,2013-03-17 13:54:00,
2013-03-17 09:03:00,57.9,53.4,30.00,SSW,196,4.0,4.0,85,0.00,,,0.00,322,Wunderground v.1.15,2013-03-17 14:03:00,
2013-03-17 09:13:00,59.5,54.3,30.00,West,271,4.0,5.0,83,0.00,,,0.00,603,Wunderground v.1.15,2013-03-17 14:13:00,
2013-03-17 09:23:00,59.1,53.6,30.00,WSW,252,5.0,5.0,82,0.00,,,0.00,186,Wunderground v.1.15,2013-03-17 14:23:00,
2013-03-17 09:33:00,59.6,54.4,30.00,SW,216,4.0,8.0,83,0.00,,,0.00,411,Wunderground v.1.15,2013-03-17 14:33:00,
2013-03-17 09:38:00,59.4,53.9,30.00,WSW,237,4.0,8.0,82,0.00,,,0.00,362,Wunderground v.1.15,2013-03-17 14:38:00,
2013-03-17 09:48:00,60.3,54.8,30.00,WSW,247,4.0,7.0,82,0.00,,,0.00,480,Wunderground v.1.15,2013-03-17 14:48:00,
2013-03-17 09:54:00,60.3,54.1,30.00,SSW,211,4.0,6.0,80,0.00,,,0.00,376,Wunderground v.1.15,2013-03-17 14:54:00,
2013-03-17 10:03:00,60.6,54.0,30.00,West,274,5.0,5.0,79,0.00,,,0.00,596,Wunderground v.1.15,2013-03-17 15:03:00,
2013-03-17 10:08:00,61.1,54.5,30.00,NW,305,4.0,5.0,79,0.00,,,0.00,677,Wunderground v.1.15,2013-03-17 15:08:00,
2013-03-17 10:13:00,62.2,55.6,29.99,WSW,240,3.0,4.0,79,0.00,,,0.00,782,Wunderground v.1.15,2013-03-17 15:13:00,
2013-03-17 10:23:00,61.8,54.9,30.00,West,274,4.0,4.0,78,0.00,,,0.00,772,Wunderground v.1.15,2013-03-17 15:23:00,
2013-03-17 10:29:00,61.5,53.5,30.00,SW,219,5.0,5.0,75,0.00,,,0.00,541,Wunderground v.1.15,2013-03-17 15:29:00,
2013-03-17 10:38:00,62.1,54.4,29.99,SW,221,3.0,7.0,76,0.00,,,0.00,475,Wunderground v.1.15,2013-03-17 15:38:00,
2013-03-17 10:43:00,62.5,54.1,29.99,West,261,4.0,7.0,74,0.00,,,0.00,265,Wunderground v.1.15,2013-03-17 15:43:00,
2013-03-17 10:53:00,61.9,53.1,29.99,WSW,245,5.0,7.0,73,0.00,,,0.00,295,Wunderground v.1.15,2013-03-17 15:53:00,
2013-03-17 11:04:00,63.7,54.1,29.99,West,269,6.0,6.0,71,0.00,,,0.00,652,Wunderground v.1.15,2013-03-17 16:04:00,
2013-03-17 11:13:00,63.7,54.1,29.99,SW,232,4.0,4.0,71,0.00,,,0.00,501,Wunderground v.1.15,2013-03-17 16:13:00,
2013-03-17 11:18:00,63.6,53.6,29.98,SW,233,4.0,9.0,70,0.00,,,0.00,480,Wunderground v.1.15,2013-03-17 16:18:00,
2013-03-17 11:24:00,64.4,54.4,29.98,SW,219,5.0,8.0,70,0.00,,,0.00,759,Wunderground v.1.15,2013-03-17 16:24:00,
2013-03-17 11:33:00,64.1,54.1,29.98,West,272,5.0,5.0,70,0.00,,,0.00,369,Wunderground v.1.15,2013-03-17 16:33:00,
2013-03-17 11:39:00,64.2,53.8,29.97,SSW,203,4.0,5.0,69,0.00,,,0.00,499,Wunderground v.1.15,2013-03-17 16:39:00,
2013-03-17 11:48:00,64.5,54.1,29.97,West,259,4.0,7.0,69,0.00,,,0.00,383,Wunderground v.1.15,2013-03-17 16:48:00,
2013-03-17 11:54:00,64.5,54.5,29.97,West,265,4.0,5.0,70,0.00,,,0.00,429,Wunderground v.1.15,2013-03-17 16:54:00,
2013-03-17 12:04:00,64.9,54.1,29.97,West,259,5.0,5.0,68,0.00,,,0.00,425,Wunderground v.1.15,2013-03-17 17:04:00,
2013-03-17 12:13:00,65.4,54.6,29.96,West,263,5.0,6.0,68,0.00,,,0.00,650,Wunderground v.1.15,2013-03-17 17:13:00,
2013-03-17 12:18:00,65.7,54.4,29.96,SW,226,5.0,6.0,67,0.00,,,0.00,666,Wunderground v.1.15,2013-03-17 17:18:00,
2013-03-17 12:28:00,65.6,53.9,29.96,WSW,251,5.0,6.0,66,0.00,,,0.00,452,Wunderground v.1.15,2013-03-17 17:28:00,
2013-03-17 12:39:00,66.9,55.6,29.96,SSW,192,5.0,9.0,67,0.00,,,0.00,455,Wunderground v.1.15,2013-03-17 17:39:00,
2013-03-17 12:49:00,66.6,54.9,29.96,SSW,211,5.0,9.0,66,0.00,,,0.00,496,Wunderground v.1.15,2013-03-17 17:49:00,
2013-03-17 12:58:00,67.5,53.6,29.95,WSW,238,6.0,6.0,61,0.00,,,0.00,608,Wunderground v.1.15,2013-03-17 17:58:00,
2013-03-17 13:03:00,66.5,53.5,29.95,SSW,209,8.0,8.0,63,0.00,,,0.00,610,Wunderground v.1.15,2013-03-17 18:03:00,
2013-03-17 13:13:00,67.5,53.1,29.95,West,261,8.0,8.0,60,0.00,,,0.00,965,Wunderground v.1.15,2013-03-17 18:13:00,
2013-03-17 13:23:00,66.9,52.1,29.94,South,189,8.0,10.0,59,0.00,,,0.00,443,Wunderground v.1.15,2013-03-17 18:23:00,
2013-03-17 13:29:00,66.5,52.2,29.94,SSW,194,9.0,12.0,60,0.00,,,0.00,454,Wunderground v.1.15,2013-03-17 18:29:00,
2013-03-17 13:38:00,65.9,51.6,29.94,SW,234,9.0,17.0,60,0.00,,,0.00,422,Wunderground v.1.15,2013-03-17 18:38:00,
2013-03-17 13:43:00,65.9,51.2,29.94,SW,219,9.0,12.0,59,0.00,,,0.00,436,Wunderground v.1.15,2013-03-17 18:43:00,
2013-03-17 13:53:00,66.4,51.2,29.93,SW,221,6.0,12.0,58,0.00,,,0.00,443,Wunderground v.1.15,2013-03-17 18:53:00,
2013-03-17 14:03:00,65.9,51.2,29.93,WSW,243,7.0,7.0,59,0.00,,,0.00,403,Wunderground v.1.15,2013-03-17 19:03:00,
2013-03-17 14:08:00,65.8,51.1,29.93,West,270,6.0,8.0,59,0.00,,,0.00,450,Wunderground v.1.15,2013-03-17 19:08:00,
2013-03-17 14:19:00,66.0,51.7,29.92,SSW,202,7.0,8.0,60,0.00,,,0.00,508,Wunderground v.1.15,2013-03-17 19:19:00,
2013-03-17 14:28:00,66.4,51.2,29.92,SW,234,8.0,8.0,58,0.00,,,0.00,438,Wunderground v.1.15,2013-03-17 19:28:00,
2013-03-17 14:34:00,66.3,50.6,29.92,SSE,148,7.0,7.0,57,0.00,,,0.00,410,Wunderground v.1.15,2013-03-17 19:34:00,
2013-03-17 14:43:00,65.8,51.5,29.92,SSW,198,6.0,6.0,60,0.00,,,0.00,394,Wunderground v.1.15,2013-03-17 19:43:00,
2013-03-17 14:53:00,66.5,52.2,29.91,SW,234,5.0,7.0,60,0.00,,,0.00,397,Wunderground v.1.15,2013-03-17 19:53:00,
2013-03-17 15:04:00,66.2,53.2,29.91,SSW,205,7.0,7.0,63,0.00,,,0.00,476,Wunderground v.1.15,2013-03-17 20:04:00,
2013-03-17 15:13:00,67.2,52.4,29.90,WSW,250,5.0,6.0,59,0.00,,,0.00,598,Wunderground v.1.15,2013-03-17 20:13:00,
2013-03-17 15:19:00,67.2,51.9,29.91,WSW,254,6.0,6.0,58,0.00,,,0.00,640,Wunderground v.1.15,2013-03-17 20:19:00,
2013-03-17 15:28:00,66.3,52.0,29.90,WSW,239,7.0,8.0,60,0.00,,,0.00,279,Wunderground v.1.15,2013-03-17 20:28:00,
2013-03-17 15:33:00,66.0,51.3,29.91,SW,215,7.0,11.0,59,0.00,,,0.00,283,Wunderground v.1.15,2013-03-17 20:33:00,
2013-03-17 15:44:00,66.8,50.6,29.90,West,275,5.0,5.0,56,0.00,,,0.00,369,Wunderground v.1.15,2013-03-17 20:44:00,
2013-03-17 15:53:00,67.9,51.6,29.90,SSW,207,6.0,9.0,56,0.00,,,0.00,682,Wunderground v.1.15,2013-03-17 20:53:00,
2013-03-17 15:58:00,67.6,50.9,29.90,SSW,196,7.0,9.0,55,0.00,,,0.00,371,Wunderground v.1.15,2013-03-17 20:58:00,
2013-03-17 16:09:00,66.0,51.3,29.89,WSW,246,6.0,7.0,59,0.00,,,0.00,218,Wunderground v.1.15,2013-03-17 21:09:00,
2013-03-17 16:19:00,66.1,50.9,29.89,SSE,155,5.0,5.0,58,0.00,,,0.00,265,Wunderground v.1.15,2013-03-17 21:19:00,
2013-03-17 16:29:00,66.8,51.1,29.89,SSW,194,5.0,7.0,57,0.00,,,0.00,378,Wunderground v.1.15,2013-03-17 21:29:00,
2013-03-17 16:38:00,66.1,50.9,29.89,SSE,165,5.0,7.0,58,0.00,,,0.00,197,Wunderground v.1.15,2013-03-17 21:38:00,
2013-03-17 16:43:00,65.8,51.1,29.89,SW,217,4.0,4.0,59,0.00,,,0.00,216,Wunderground v.1.15,2013-03-17 21:43:00,
2013-03-17 16:53:00,66.1,50.4,29.88,SSW,208,5.0,5.0,57,0.00,,,0.00,227,Wunderground v.1.15,2013-03-17 21:53:00,
2013-03-17 17:04:00,66.2,51.4,29.88,South,174,5.0,5.0,59,0.00,,,0.00,221,Wunderground v.1.15,2013-03-17 22:04:00,
2013-03-17 17:13:00,66.1,50.9,29.89,SSE,160,7.0,7.0,58,0.00,,,0.00,330,Wunderground v.1.15,2013-03-17 22:13:00,
2013-03-17 17:19:00,66.3,51.5,29.88,SW,219,8.0,8.0,59,0.00,,,0.00,185,Wunderground v.1.15,2013-03-17 22:19:00,
2013-03-17 17:28:00,65.9,50.7,29.88,WSW,254,6.0,7.0,58,0.00,,,0.00,278,Wunderground v.1.15,2013-03-17 22:28:00,
2013-03-17 17:33:00,65.9,50.2,29.89,SW,223,7.0,7.0,57,0.00,,,0.00,299,Wunderground v.1.15,2013-03-17 22:33:00,
2013-03-17 17:43:00,66.2,50.5,29.88,SW,219,6.0,6.0,57,0.00,,,0.00,156,Wunderground v.1.15,2013-03-17 22:43:00,
2013-03-17 17:48:00,65.6,50.0,29.88,South,186,6.0,12.0,57,0.00,,,0.00,116,Wunderground v.1.15,2013-03-17 22:48:00,
2013-03-17 17:59:00,64.7,50.0,29.88,South,184,8.0,9.0,59,0.00,,,0.00,134,Wunderground v.1.15,2013-03-17 22:59:00,
2013-03-17 18:08:00,64.5,50.3,29.88,SW,221,5.0,8.0,60,0.00,,,0.00,67,Wunderground v.1.15,2013-03-17 23:08:00,
2013-03-17 18:13:00,64.3,50.6,29.88,SW,216,5.0,6.0,61,0.00,,,0.00,74,Wunderground v.1.15,2013-03-17 23:13:00,
2013-03-17 18:23:00,64.0,50.7,29.88,SSW,193,4.0,6.0,62,0.00,,,0.00,49,Wunderground v.1.15,2013-03-17 23:23:00,
2013-03-17 18:34:00,63.6,50.8,29.89,SW,227,3.0,3.0,63,0.00,,,0.00,30,Wunderground v.1.15,2013-03-17 23:34:00,
2013-03-17 18:43:00,63.4,51.0,29.89,SW,216,4.0,4.0,64,0.00,,,0.00,28,Wunderground v.1.15,2013-03-17 23:43:00,
2013-03-17 18:48:00,62.9,50.5,29.89,South,190,3.0,4.0,64,0.00,,,0.00,19,Wunderground v.1.15,2013-03-17 23:48:00,
2013-03-17 18:58:00,62.4,50.9,29.89,SSE,150,2.0,3.0,66,0.00,,,0.00,7,Wunderground v.1.15,2013-03-17 23:58:00,
2013-03-17 19:03:00,61.9,50.4,29.89,SSE,161,2.0,2.0,66,0.00,,,0.00,0,Wunderground v.1.15,2013-03-18 00:03:00,
2013-03-17 19:14:00,60.5,50.3,29.89,South,175,1.0,1.0,69,0.00,,,0.00,0,Wunderground v.1.15,2013-03-18 00:14:00,
2013-03-17 19:23:00,58.8,50.2,29.88,SSE,148,1.0,1.0,73,0.00,,,0.00,0,Wunderground v.1.15,2013-03-18 00:23:00,
2013-03-17 19:33:00,58.2,50.0,29.89,SSE,149,1.0,1.0,74,0.00,,,0.00,0,Wunderground v.1.15,2013-03-18 00:33:00,
2013-03-17 19:44:00,57.5,49.6,29.89,South,178,1.0,1.0,75,0.00,,,0.00,0,Wunderground v.1.15,2013-03-18 00:44:00,
2013-03-17 19:53:00,56.4,49.6,29.88,South,178,1.0,2.0,78,0.00,,,0.00,0,Wunderground v.1.15,2013-03-18 00:53:00,
2013-03-17 20:04:00,56.7,49.6,29.88,SSE,151,2.0,2.0,77,0.00,,,0.00,0,Wunderground v.1.15,2013-03-18 01:04:00,
2013-03-17 20:13:00,56.9,49.4,29.89,SE,142,2.0,2.0,76,0.00,,,0.00,0,Wunderground v.1.15,2013-03-18 01:13:00,
2013-03-17 20:18:00,57.5,49.6,29.89,South,173,2.0,3.0,75,0.00,,,0.00,0,Wunderground v.1.15,2013-03-18 01:18:00,
2013-03-17 20:28:00,57.2,49.3,29.89,SSE,158,1.0,2.0,75,0.00,,,0.00,0,Wunderground v.1.15,2013-03-18 01:28:00,
2013-03-17 20:38:00,57.8,49.6,29.89,SSE,162,2.0,4.0,74,0.00,,,0.00,0,Wunderground v.1.15,2013-03-18 01:38:00,
2013-03-17 20:43:00,58.6,50.0,29.89,SSW,206,3.0,3.0,73,0.00,,,0.00,0,Wunderground v.1.15,2013-03-18 01:43:00,
2013-03-17 20:53:00,59.4,50.4,29.89,SSE,162,4.0,4.0,72,0.00,,,0.00,0,Wunderground v.1.15,2013-03-18 01:53:00,
2013-03-17 20:58:00,60.0,50.2,29.89,South,191,4.0,5.0,70,0.00,,,0.00,0,Wunderground v.1.15,2013-03-18 01:58:00,
2013-03-17 21:09:00,60.0,50.6,29.89,South,174,5.0,6.0,71,0.00,,,0.00,0,Wunderground v.1.15,2013-03-18 02:09:00,
2013-03-17 21:18:00,60.5,50.7,29.90,South,177,5.0,5.0,70,0.00,,,0.00,0,Wunderground v.1.15,2013-03-18 02:18:00,
2013-03-17 21:24:00,60.5,51.0,29.90,SE,140,5.0,6.0,71,0.00,,,0.00,0,Wunderground v.1.15,2013-03-18 02:24:00,
2013-03-17 21:34:00,60.1,51.0,29.90,SE,135,4.0,4.0,72,0.00,,,0.00,0,Wunderground v.1.15,2013-03-18 02:34:00,
2013-03-17 21:44:00,59.9,51.2,29.90,SE,138,4.0,4.0,73,0.00,,,0.00,0,Wunderground v.1.15,2013-03-18 02:44:00,
2013-03-17 21:54:00,60.0,50.9,29.91,South,188,3.0,8.0,72,0.00,,,0.00,0,Wunderground v.1.15,2013-03-18 02:54:00,
2013-03-17 21:59:00,59.8,51.1,29.91,SSW,209,4.0,8.0,73,0.00,,,0.00,0,Wunderground v.1.15,2013-03-18 02:59:00,
2013-03-17 22:09:00,59.3,51.4,29.91,SW,218,3.0,4.0,75,0.00,,,0.00,0,Wunderground v.1.15,2013-03-18 03:09:00,
2013-03-17 22:19:00,59.5,51.9,29.91,South,180,3.0,5.0,76,0.00,,,0.00,0,Wunderground v.1.15,2013-03-18 03:19:00,
2013-03-17 22:29:00,59.5,52.3,29.91,SSE,165,4.0,4.0,77,0.00,,,0.00,0,Wunderground v.1.15,2013-03-18 03:29:00,
2013-03-17 22:39:00,59.6,52.7,29.90,South,186,5.0,5.0,78,0.00,,,0.00,0,Wunderground v.1.15,2013-03-18 03:39:00,
2013-03-17 22:44:00,59.3,52.8,29.90,South,172,5.0,5.0,79,0.00,,,0.00,0,Wunderground v.1.15,2013-03-18 03:44:00,
2013-03-17 22:54:00,59.3,53.1,29.90,South,183,5.0,5.0,80,0.00,,,0.00,0,Wunderground v.1.15,2013-03-18 03:54:00,
2013-03-17 22:59:00,59.3,53.1,29.90,SSW,200,5.0,7.0,80,0.00,,,0.00,0,Wunderground v.1.15,2013-03-18 03:59:00,
2013-03-17 23:04:00,59.5,53.3,29.89,SE,140,5.0,5.0,80,0.00,,,0.00,0,Wunderground v.1.15,2013-03-18 04:04:00,
2013-03-17 23:09:00,59.5,53.3,29.89,SSE,150,6.0,6.0,80,0.00,,,0.00,0,Wunderground v.1.15,2013-03-18 04:09:00,
2013-03-17 23:14:00,59.5,53.3,29.89,SE,146,5.0,5.0,80,0.00,,,0.00,0,Wunderground v.1.15,2013-03-18 04:14:00,
2013-03-17 23:24:00,59.6,53.8,29.89,SSE,163,6.0,6.0,81,0.00,,,0.00,0,Wunderground v.1.15,2013-03-18 04:24:00,
2013-03-17 23:29:00,59.7,53.9,29.89,SSW,192,6.0,6.0,81,0.00,,,0.00,0,Wunderground v.1.15,2013-03-18 04:29:00,
2013-03-17 23:39:00,59.7,54.2,29.88,SSE,150,6.0,6.0,82,0.00,,,0.00,0,Wunderground v.1.15,2013-03-18 04:39:00,
2013-03-17 23:49:00,59.7,54.2,29.88,SSE,152,6.0,10.0,82,0.00,,,0.00,0,Wunderground v.1.15,2013-03-18 04:49:00,
2013-03-17 23:54:00,59.5,54.3,29.88,SSE,167,6.0,9.0,83,0.00,,,0.00,0,Wunderground v.1.15,2013-03-18 04:54:00,